Lid_Strength_Index
2 2 2 2 2 2 2 2 2 1 1 1 1 1 1 1 2 4 5 4 4 0 2 6 6 5 3 5 5 3 8 10 9 8 8 5 6 5 4 5 4 3 3 2 2
3 3 2 2 2 2 2 2 2 2 1 1 1 1 1 1 3 5 2 2 0 -0 5 6 7 6 7 5 5 6 9 8 6 6 7 6 5 6 5 5 5 4 2 2 2
2 3 3 3 3 2 2 2 2 2 2 1 1 1 1 2 3 4 1 1 -1 0 4 4 5 7 8 7 6 6 9 6 6 5 4 6 6 5 5 6 5 4 3 2 2
2 2 2 3 3 3 3 3 2 2 2 1 1 1 1 3 9 2 1 1 -1 1 3 5 5 7 8 9 7 8 6 6 5 5 5 6 4 6 5 5 4 3 3 2 3
2 2 2 3 3 2 2 2 2 2 2 2 2 1 2 4 6 2 -0 0 2 3 5 6 7 6 7 6 6 8 7 6 5 5 5 4 5 5 5 3 3 3 3 3 3
3 3 3 3 3 3 2 2 2 2 2 2 1 1 3 6 3 3 3 3 3 4 5 5 6 6 7 7 7 5 6 6 6 6 5 6 6 5 5 4 3 3 3 4 3
2 2 3 3 3 3 3 2 2 2 2 1 1 2 4 5 3 2 2 3 3 4 5 4 5 6 7 8 6 6 7 6 6 6 6 5 7 7 4 4 4 4 3 3 3
2 2 2 3 2 2 2 2 2 2 1 0 0 2 5 3 2 3 3 3 3 3 4 3 4 5 6 6 7 9 8 10 7 6 5 6 9 6 4 5 5 4 4 3 3
2 2 3 3 3 2 2 2 2 1 0 1 2 2 5 2 4 4 4 5 4 4 4 4 5 7 7 9 10 9 12 11 9 6 6 6 8 5 4 5 5 5 4 4 3
3 3 3 3 3 2 2 2 1 1 1 1 2 5 4 6 5 5 4 4 5 5 6 6 7 8 8 9 14 12 11 10 11 8 7 7 7 6 5 5 5 5 4 4 4
3 3 3 3 3 3 3 1 3 4 2 5 6 6 6 5 4 5 4 5 5 6 8 6 9 10 9 8 8 9 10 11 9 8 8 8 7 6 5 5 5 5 5 4 4
3 3 3 3 3 3 3 3 4 3 7 4 4 5 5 5 7 6 4 7 7 9 7 8 10 7 7 8 9 9 10 11 9 8 8 8 9 7 5 5 5 5 5 4 4
4 3 3 3 3 3 2 3 1 2 7 6 6 6 6 5 7 7 5 6 8 9 9 10 9 7 8 9 10 10 10 10 11 9 8 9 10 8 6 5 5 4 4 4 4
4 4 4 4 5 2 2 1 1 1 9 8 8 6 5 5 7 4 4 6 8 10 9 9 8 8 9 9 8 12 8 9 10 10 14 9 14 9 7 7 6 5 4 4 4
4 4 4 4 3 4 3 1 1 3 19 8 7 4 5 7 6 6 4 6 9 9 9 10 8 9 9 8 7 9 7 8 9 10 11 11 12 12 8 8 7 6 5 4 4
3 4 4 3 2 2 2 1 2 11 16 9 7 8 7 7 6 6 6 5 5 8 7 7 5 6 7 7 6 6 8 8 9 10 14 12 12 13 10 8 7 5 5 4 4
3 4 5 2 5 2 2 3 11 14 8 9 9 8 8 8 8 7 7 7 8 10 10 8 8 6 6 9 7 7 10 15 15 14 15 10 12 10 8 7 6 6 5 4 4
4 4 3 3 2 2 3 7 14 9 9 7 8 8 9 8 8 8 7 9 7 7 10 11 12 8 7 9 9 9 10 15 20 17 15 10 14 12 7 6 5 5 5 4 4
4 1 2 1 2 3 6 12 12 9 8 9 8 9 9 8 8 7 8 8 7 7 10 11 11 7 6 6 7 10 11 8 12 12 16 13 10 8 7 6 6 6 5 4 3
4 2 2 2 2 4 8 10 9 7 7 7 10 9 10 9 9 8 9 7 7 6 6 8 12 8 7 6 6 8 7 12 12 19 20 14 13 12 9 8 6 6 5 5 4
3 4 2 2 2 5 10 9 9 7 6 8 9 9 9 9 8 9 9 7 6 7 6 7 9 10 8 9 10 10 11 12 11 13 17 17 14 8 10 9 9 6 5 5 4
3 7 2 1 6 6 9 9 9 7 6 7 7 8 8 8 9 9 9 8 5 6 9 7 10 13 11 7 7 8 11 11 16 16 14 14 14 7 8 8 8 8 5 4 4
5 4 1 2 9 9 6 7 7 8 7 7 8 7 6 8 11 9 8 6 5 6 8 8 10 15 12 9 9 11 10 9 10 12 14 16 14 7 8 8 9 9 8 4 4
4 7 5 5 4 6 8 8 9 7 7 6 7 6 7 8 7 10 9 7 6 6 5 6 10 13 16 13 10 13 12 10 11 14 13 13 12 9 10 10 9 8 7 5 4
4 7 5 8 7 7 6 7 8 9 6 6 7 7 8 10 9 10 8 7 6 6 6 8 13 11 10 9 9 10 10 10 11 10 12 11 11 9 9 9 9 8 6 5 5
7 8 7 8 6 7 7 7 8 7 7 8 8 7 7 9 9 10 8 8 9 7 8 8 14 11 12 10 9 11 9 9 9 9 10 10 10 7 7 7 7 6 6 6 5
4 5 7 8 6 8 8 7 7 7 6 6 7 7 8 7 5 5 5 6 7 9 9 11 12 14 15 10 11 14 10 10 10 9 10 13 10 8 8 7 7 6 5 5 5